[[{"header":{"parameterUnit":"m.s-1","parameterCategory":1,"la1":30.2991,"la2":30.254,"lo1":-89.0895,"lo2":-89.0444,"dy":0.0017,"dx":0.0017,"nx":28,"ny":28,"refTime":"2023-09-11T21:00:00:Z","depth":0,"parameterNumber":2,"parameterNumberName":"U-component_of_WINDS"},"data":[0,0,0,0,0,0,0,0,0,0,0,0,0,0,0,0,0,0,0,0,0,0,0,0,0,0,0,0,0,0,0,0,0,0,0,0,0,0,0,0,0,0,0,0,0,0,0,0,0,0,0,0,0,0,0,0,0,0,0.8891,0.8893,0,0.9049,0.9051,0.9053,0.907,0.9069,0.9067,0.9066,0.9237,0.9243,0.9249,0,0,0,0,0,0,0,0,0,0,0,0,0,0.8614,0.8619,0.8891,0.8893,0.8895,0.9049,0.9051,0.9053,0.9071,0.9069,0.9067,0.9065,0.9235,0.9242,0.925,0,0,0,0,0,0,0,0,0,0,0,0,0,0.875,0.8621,0.8891,0.8922,0.8926,0.9048,0.9051,0.9054,0.9071,0.9069,0.9066,0.9064,0.9233,0.9242,0.9251,0.9355,0,0,0.9279,0.9283,0,0,0,0,0,0,0,0,0.8742,0.876,0.8915,0.892,0.8925,0.9037,0.9016,0.9155,0.9072,0.9016,0.9066,0.9063,0.9173,0.9187,0.9223,0.9364,0.9371,0.9279,0.9285,0.9289,0.9291,0,0,0,0,0,0,0,0.8733,0.8753,0.8954,0.8918,0.8924,0.8931,0.8948,0.9043,0.9107,0.9021,0.9023,0.9041,0.9176,0.9214,0.9227,0.9373,0.9279,0.9287,0.9293,0.9296,0.9611,0.9614,0,0,0,0,0,0,0.8716,0.8745,0.8949,0.8958,0.8825,0.8938,0.8957,0.9004,0.9106,0.9119,0.9042,0.9041,0.9199,0.9216,0.9233,0.9364,0.9289,0.9297,0.9303,0.9608,0.9612,0.9615,0,0,0,0,0,0,0.871,0.8734,0.8942,0.8852,0.8879,0.8945,0.8998,0.9008,0.9046,0.9122,0.9134,0.9069,0.9198,0.922,0.9325,0.937,0.9301,0.931,0.9605,0.9609,0.9613,0.9625,0,0,0,0,0,0,0.8702,0.8732,0.877,0.8853,0.8884,0.9029,0.9001,0.9013,0.9061,0.906,0.915,0.9163,0.9198,0.9311,0.9334,0.9381,0.9317,0.9601,0.9607,0.9612,0.9621,0.9629,0.9636,0,0,0,0,0,0.8692,0.8768,0.8771,0.8796,0.8932,0.9031,0.9049,0.9085,0.9064,0.9105,0.9154,0.916,0.9361,0.9321,0.9347,0.9398,0.9598,0.9605,0.9611,0.9618,0.9628,0.9636,0,0,0,0,0,0,0.8692,0.878,0.8784,0.8889,0.8952,0.9034,0.9086,0.9095,0.9167,0.9164,0.9209,0.9229,0.9332,0.9376,0.933,0.9506,0.9478,0.949,0.9474,0.9484,0.9492,0.948,0.9324,0,0,0,0,0,0.8704,0.8773,0.8847,0.8933,0.8964,0.9019,0.9064,0.9086,0.9154,0.9182,0.9238,0.9307,0.9386,0.9437,0.9514,0.9627,0.9648,0.9675,0.9682,0.9688,0.9699,0.9764,0.9777,0.9636,0.9636,0.9636,0,0,0.873,0.8786,0.8828,0.8935,0.8986,0.906,0.9042,0.9121,0.9178,0.9195,0.9297,0.9341,0.9421,0.953,0.9582,0.957,0.9742,0.9697,0.9701,0.9708,0.9772,0.9786,0.9797,0.964,0.964,0.9639,0,0,0.8815,0.8864,0.8941,0.8992,0.9069,0.9105,0.9124,0.9204,0.9233,0.9335,0.935,0.942,0.9554,0.9611,0.9658,0.9765,0.9774,0.9789,0.983,0.9893,0.9904,0.9914,0.9955,0.9968,0.9799,0.9799,0.9799,0,0.8839,0.8948,0.8981,0.9059,0.9107,0.9123,0.9203,0.9253,0.9352,0.9386,0.9371,0.954,0.9595,0.9719,0.9745,0.9781,0.9807,0.978,0.9899,0.991,0.992,0.9959,0.9974,0.98,0.98,0.98,0.98,0,0.8974,0.905,0.9104,0.9196,0.925,0.9329,0.9377,0.9428,0.9446,0.9485,0.959,0.9656,0.9747,0.9778,0.9797,0.9906,0.9896,0.9889,0.9862,0.9934,0.9972,0.9987,0.9802,0.9801,0.9801,0.9801,0,0,0.9065,0.9173,0.9193,0.9236,0.9322,0.9383,0.9464,0.955,0.9594,0.9662,0.9734,0.9847,0.9841,0.9894,0.9919,0.9974,1.0058,0.9961,0.9964,0.9979,1.0184,1.019,1.0207,1.0064,1.0067,1.0069,1.0178,0,0.9162,0.9303,0.9335,0.9459,0.9531,0.9547,0.9619,0.9681,0.972,0.9789,0.9833,0.9913,0.9898,0.9931,0.9985,1.0036,1.01,1.0028,1.0134,1.0137,1.0115,1.0226,1.0232,1.0332,1.0193,1.0196,1.0197,0,0.9293,0.9362,0.9491,0.9569,0.96,0.9663,0.9745,0.981,0.9882,0.9907,0.9965,0.9986,1.0074,1.0041,1.0166,1.0116,1.0162,1.0193,1.0198,1.0211,1.0173,1.0244,1.0365,1.038,1.022,1.0219,1.0217,0,0.9349,0.9474,0.9567,0.9603,0.9696,0.974,0.9781,0.9851,0.9901,0.9973,1.0007,1.009,1.0136,1.0202,1.0245,1.0216,1.0367,1.0337,1.0393,1.0392,1.0426,1.0423,1.0557,1.0451,1.0451,1.0451,1.0451,0,0.9455,0.9534,0.9594,0.9652,0.9742,0.978,0.9869,0.9911,0.9973,1.0042,1.0062,1.0127,1.0179,1.0252,1.0287,1.0386,1.0407,1.0431,1.044,1.0431,1.0428,1.0462,1.0457,1.0455,1.0454,1.0453,1.0453,0,0.9532,0.9575,0.9679,0.9757,0.9779,0.9842,0.9911,0.997,1.0008,1.0096,1.0119,1.0181,1.0268,1.0317,1.0427,1.0451,1.0562,1.0567,1.0537,1.0541,1.0595,1.059,1.0757,1.0782,1.0658,1.0659,1.066,0,0.9598,0.9659,0.9743,0.9789,0.983,0.9904,0.9955,0.9995,1.0047,1.0134,1.0184,1.0271,1.0343,1.0483,1.054,1.0625,1.0633,1.0686,1.0646,1.0635,1.0636,1.0633,1.064,1.0693,1.0695,1.0695,1.0696,0,0.971,0.9728,0.9798,0.9877,0.9935,1.0,1.0064,1.0101,1.0153,1.0211,1.0299,1.0355,1.0466,1.0554,1.0644,1.069,1.0703,1.0708,1.0726,1.0718,1.0698,1.0711,1.0558,1.0704,1.0704,1.0703,1.0702,1.0702,0.9785,0.9841,0.9908,0.9987,1.0039,1.0098,1.0157,1.0202,1.0275,1.0367,1.0387,1.048,1.0554,1.0675,1.0723,1.0799,1.079,1.0815,1.0822,1.0828,1.083,1.0684,1.0815,1.0815,1.0815,1.0815,1.0815,0,0.99,0.9944,1.0015,1.0103,1.0166,1.0168,1.024,1.0293,1.0373,1.0439,1.0509,1.0611,1.0696,1.0759,1.0848,1.0896,1.0905,1.0918,1.0916,1.0927,1.0833,1.0809,1.091,1.091,1.091,1.091,1.091,1.091,0.9967,1.0062,1.0088,1.021,1.0254,1.0343,1.0384,1.044,1.0492,1.0604,1.0674,1.0713,1.0779,1.0872,1.0952,1.0969,1.1001,1.1015,1.1033,1.0944,1.0934,1.0924,1.0902,1.1021,1.1021,1.1121,1.1122,1.1123]},{"header":{"parameterUnit":"m.s-1","parameterCategory":1,"la1":30.2991,"la2":30.254,"lo1":-89.0895,"lo2":-89.0444,"dy":0.0017,"dx":0.0017,"nx":28,"ny":28,"refTime":"2023-09-11T21:00:00:Z","depth":0,"parameterNumber":3,"parameterNumberName":"V-component_of_WINDS"},"data":[0,0,0,0,0,0,0,0,0,0,0,0,0,0,0,0,0,0,0,0,0,0,0,0,0,0,0,0,0,0,0,0,0,0,0,0,0,0,0,0,0,0,0,0,0,0,0,0,0,0,0,0,0,0,0,0,0,0,0.6393,0.6394,0,0.6513,0.6515,0.6516,0.6483,0.648,0.6478,0.6476,0.6598,0.6604,0.6609,0,0,0,0,0,0,0,0,0,0,0,0,0,0.613,0.6135,0.6393,0.6394,0.6396,0.6513,0.6515,0.6516,0.6483,0.648,0.6477,0.6475,0.6597,0.6603,0.661,0,0,0,0,0,0,0,0,0,0,0,0,0,0.6246,0.6136,0.6393,0.6393,0.6395,0.6513,0.6515,0.6517,0.6484,0.648,0.6477,0.6473,0.6594,0.6603,0.6611,0.6735,0,0,0.6636,0.664,0,0,0,0,0,0,0,0,0.624,0.6256,0.6392,0.6394,0.6395,0.6479,0.6467,0.659,0.6485,0.645,0.6476,0.6471,0.6562,0.6572,0.6603,0.6741,0.6746,0.6637,0.6642,0.6645,0.6648,0,0,0,0,0,0,0,0.6232,0.6251,0.6441,0.6394,0.6396,0.6386,0.6399,0.649,0.6525,0.6453,0.6451,0.6465,0.6562,0.6595,0.6606,0.6748,0.6637,0.6644,0.6649,0.6652,0.6987,0.6991,0,0,0,0,0,0,0.6223,0.6244,0.6437,0.6444,0.6307,0.6394,0.6408,0.6456,0.6524,0.6531,0.6468,0.6463,0.6583,0.6596,0.661,0.6755,0.6645,0.6653,0.6658,0.6983,0.6988,0.6992,0,0,0,0,0,0,0.6217,0.624,0.6432,0.6344,0.6367,0.6402,0.6457,0.646,0.6494,0.6536,0.6541,0.6496,0.658,0.6598,0.6703,0.6759,0.6657,0.6664,0.6978,0.6984,0.699,0.7051,0,0,0,0,0,0,0.621,0.6239,0.6288,0.6345,0.6372,0.6524,0.646,0.6465,0.6508,0.6503,0.6563,0.657,0.6579,0.669,0.6711,0.6769,0.6671,0.6973,0.6981,0.6988,0.7044,0.7058,0.707,0,0,0,0,0,0.6201,0.6301,0.629,0.6314,0.6434,0.6528,0.6543,0.6552,0.6513,0.6561,0.6587,0.6568,0.675,0.6702,0.6724,0.6786,0.697,0.6979,0.6987,0.7038,0.7055,0.7069,0,0,0,0,0,0,0.6251,0.6309,0.6298,0.642,0.6469,0.6522,0.6584,0.6571,0.6632,0.6624,0.6632,0.6646,0.6752,0.678,0.6724,0.6906,0.6854,0.6868,0.6884,0.6901,0.6914,0.6904,0.6678,0,0,0,0,0,0.6276,0.6348,0.6395,0.6498,0.6523,0.6549,0.659,0.6592,0.6643,0.6664,0.6698,0.6748,0.6815,0.686,0.6925,0.7047,0.7057,0.71,0.7113,0.7124,0.7135,0.7196,0.7214,0.7021,0.7021,0.702,0,0,0.633,0.637,0.6416,0.6509,0.6548,0.6619,0.6567,0.6647,0.67,0.6676,0.6776,0.6802,0.6857,0.697,0.7021,0.6996,0.7191,0.7135,0.7143,0.7149,0.7207,0.7225,0.7241,0.7027,0.7026,0.7025,0,0,0.6463,0.6503,0.659,0.6629,0.6686,0.6702,0.6723,0.6777,0.6793,0.6893,0.6875,0.6937,0.7055,0.7093,0.7129,0.727,0.7252,0.7291,0.7359,0.7418,0.7433,0.7447,0.7493,0.751,0.7302,0.7302,0.7303,0,0.6522,0.6631,0.6637,0.6717,0.6757,0.6737,0.6824,0.6861,0.6937,0.6964,0.6935,0.7078,0.7115,0.7233,0.7267,0.7298,0.7318,0.7284,0.7431,0.7444,0.7457,0.7501,0.7519,0.7306,0.7306,0.7306,0.7305,0,0.6698,0.6773,0.6837,0.6908,0.6955,0.7039,0.7055,0.7102,0.7098,0.7116,0.7215,0.7257,0.7328,0.7357,0.7356,0.7473,0.7455,0.7429,0.7376,0.7479,0.752,0.7538,0.7312,0.7311,0.731,0.7309,0,0,0.6869,0.6939,0.6962,0.6992,0.7052,0.7109,0.7189,0.7257,0.7295,0.7347,0.7412,0.751,0.7483,0.7523,0.7525,0.7578,0.7681,0.7544,0.7545,0.7564,0.7807,0.7825,0.7845,0.767,0.7673,0.7676,0.7801,0,0.7004,0.7145,0.7151,0.7279,0.7345,0.7325,0.7394,0.7436,0.7454,0.7512,0.7531,0.7598,0.7561,0.7584,0.7635,0.7657,0.7729,0.7649,0.7727,0.773,0.7712,0.7867,0.7888,0.8004,0.7818,0.7821,0.7823,0,0.7182,0.7236,0.737,0.7415,0.7443,0.7505,0.7565,0.7622,0.7668,0.7676,0.7718,0.7711,0.7789,0.7734,0.784,0.7785,0.7817,0.7833,0.7837,0.7843,0.7781,0.7874,0.8042,0.8059,0.7849,0.7847,0.7845,0,0.7287,0.7395,0.7487,0.7514,0.757,0.7613,0.7638,0.7681,0.7719,0.7771,0.7795,0.7856,0.7889,0.7935,0.7943,0.7903,0.8048,0.7995,0.8054,0.8054,0.8085,0.8082,0.8257,0.811,0.811,0.811,0.8109,0,0.7436,0.7518,0.7535,0.7592,0.7681,0.7685,0.7773,0.7795,0.7832,0.789,0.7877,0.7932,0.794,0.7996,0.8003,0.8087,0.8103,0.811,0.811,0.811,0.8108,0.813,0.8121,0.8114,0.8113,0.8112,0.8111,0,0.757,0.7585,0.7684,0.7727,0.7739,0.7803,0.7838,0.7891,0.7905,0.7979,0.7997,0.8019,0.8084,0.8097,0.8174,0.8178,0.8277,0.8271,0.8261,0.8259,0.8317,0.831,0.851,0.8534,0.8373,0.8375,0.8376,0,0.7663,0.7725,0.7773,0.7811,0.7837,0.7899,0.7937,0.7943,0.7983,0.8036,0.8082,0.8144,0.8195,0.8299,0.8321,0.8378,0.8371,0.8437,0.838,0.8376,0.8368,0.8363,0.8367,0.8448,0.8449,0.8451,0.8452,0,0.7825,0.7828,0.7884,0.7941,0.7987,0.8032,0.8075,0.8107,0.8117,0.8162,0.8227,0.8266,0.8342,0.8404,0.846,0.8483,0.8468,0.847,0.8486,0.8485,0.8475,0.8477,0.8288,0.8465,0.8464,0.8463,0.8462,0.8462,0.7939,0.7991,0.8031,0.8093,0.8125,0.8164,0.8214,0.8233,0.8288,0.835,0.8349,0.8419,0.8458,0.8532,0.8558,0.8612,0.8591,0.8615,0.8621,0.8626,0.8629,0.8468,0.8622,0.8622,0.8622,0.8621,0.8621,0,0.8097,0.8121,0.8177,0.8236,0.8283,0.8264,0.8309,0.8349,0.8411,0.8449,0.8498,0.857,0.8627,0.8653,0.8709,0.8746,0.874,0.876,0.8756,0.8761,0.8647,0.8626,0.8764,0.8764,0.8764,0.8764,0.8764,0.8763,0.8185,0.827,0.8277,0.8376,0.8399,0.8467,0.8494,0.8528,0.8558,0.8639,0.8686,0.8702,0.8733,0.879,0.8841,0.8847,0.8866,0.8889,0.8891,0.8784,0.877,0.8756,0.8736,0.8894,0.8894,0.9,0.9001,0.9002]}]]